Kailua Kona, HI

9:27 PM HST on September 26, 2016 (GMT -1000)
Kona International At Keahole

Weather History for PHKO - November, 2013

Change the Weather History Date:

Friday, November 8, 2013

  Actual Average Record
Temperature  
Mean Temperature 80 °F -  
Max Temperature 84 °F 82 °F 90 °F (1982)
Min Temperature 77 °F 71 °F 69 °F (1983)
Cooling Degree Days 16    
Growing Degree Days 30 (Base 50)    
Moisture  
Dew Point 69 °F    
Average Humidity 68    
Maximum Humidity 76    
Minimum Humidity 52    
Precipitation  
Precipitation 0.00 in - - ()
Sea Level Pressure  
Sea Level Pressure 29.91 in    
Wind  
Wind Speed 4 mph (West)    
Max Wind Speed 13 mph    
Max Gust Speed 18 mph    
Visibility 10 miles    
Events      
Averages and records for this station are not official NWS values.
T = Trace of Precipitation, MM = Missing Value Source: NWS Daily Summary

Daily Weather History Graph

Daily Weather History Graph

Search for Another Location

Airport or City:

Trip Planner

Search our weather history database for the weather conditions in past years. The results will help you decide how hot, cold, wet, or windy it might be!

Date:

Astronomy

Nov. 08, 2013 Rise Set
Actual Time 6:28 AM HST 5:46 PM HST
Civil Twilight 6:06 AM HST 6:09 PM HST
Nautical Twilight 5:39 AM HST 6:35 PM HST
Astronomical Twilight 5:13 AM HST 7:02 PM HST
Moon 11:33 AM HST (11/8) 11:16 PM HST (11/8)
Length of Visible Light 12h 03m
Length of Day
11h 17m
Waxing Crescent, 35% of the Moon is Illuminated
Nov 8
Waxing Crescent
Nov 9
First Quarter
Nov 17
Full
Nov 25
Last Quarter
Dec 2
New

Hourly Weather History & Observations

Time (HST) Temp. Heat Index Dew Point Humidity Pressure Visibility Wind Dir Wind Speed Gust Speed Precip Events Conditions
12:53 AM 80.1 °F 81.9 °F 64.9 °F 60% 29.94 in 10.0 mi NE 4.6 mph - N/A   Scattered Clouds
1:53 AM 79.0 °F - 69.1 °F 72% 29.93 in 10.0 mi Calm Calm - N/A   Partly Cloudy
2:53 AM 78.1 °F - 69.1 °F 74% 29.91 in 10.0 mi SSE 3.5 mph - N/A   Scattered Clouds
3:53 AM 77.0 °F - 69.1 °F 76% 29.91 in 10.0 mi SE 3.5 mph - N/A   Mostly Cloudy
4:53 AM 78.1 °F - 68.0 °F 71% 29.91 in 10.0 mi Calm Calm - N/A   Mostly Cloudy
5:53 AM 77.0 °F - 69.1 °F 76% 29.93 in 10.0 mi ESE 4.6 mph - N/A   Partly Cloudy
6:53 AM 77.0 °F - 69.1 °F 76% 29.95 in 10.0 mi East 3.5 mph - N/A   Partly Cloudy
7:53 AM 80.1 °F 83.2 °F 70.0 °F 71% 29.95 in 10.0 mi Calm Calm - N/A   Overcast
8:53 AM 80.1 °F 83.6 °F 71.1 °F 74% 29.96 in 10.0 mi Calm Calm - N/A   Partly Cloudy
9:53 AM 82.0 °F 86.3 °F 71.1 °F 69% 29.96 in 10.0 mi West 4.6 mph - N/A   Clear
10:53 AM 82.9 °F 87.5 °F 71.1 °F 67% 29.94 in 10.0 mi WNW 6.9 mph - N/A   Clear
11:53 AM 84.0 °F 89.6 °F 72.0 °F 67% 29.91 in 10.0 mi West 9.2 mph - N/A   Clear
12:53 PM 84.9 °F 90.1 °F 71.1 °F 63% 29.88 in 10.0 mi WNW 9.2 mph - N/A   Clear
1:53 PM 84.9 °F 90.1 °F 71.1 °F 63% 29.85 in 10.0 mi West 10.4 mph - N/A   Partly Cloudy
2:53 PM 82.0 °F 86.3 °F 71.1 °F 69% 29.85 in 10.0 mi West 8.1 mph - N/A   Partly Cloudy
3:53 PM 81.0 °F 84.9 °F 71.1 °F 72% 29.85 in 10.0 mi West 5.8 mph - N/A   Partly Cloudy
4:53 PM 81.0 °F 84.9 °F 71.1 °F 72% 29.86 in 10.0 mi West 6.9 mph - N/A   Partly Cloudy
5:53 PM 81.0 °F 84.9 °F 71.1 °F 72% 29.88 in 10.0 mi WSW 5.8 mph - N/A   Mostly Cloudy
6:53 PM 80.1 °F 83.2 °F 70.0 °F 71% 29.89 in 10.0 mi Calm Calm - N/A   Scattered Clouds
7:53 PM 80.1 °F 83.2 °F 70.0 °F 71% 29.91 in 10.0 mi Calm Calm - N/A   Clear
8:53 PM 80.1 °F 81.5 °F 63.0 °F 56% 29.91 in 10.0 mi North 4.6 mph - N/A   Scattered Clouds
9:53 PM 79.0 °F - 66.0 °F 64% 29.92 in 10.0 mi NE 11.5 mph - N/A   Clear
10:53 PM 80.1 °F 81.1 °F 61.0 °F 52% 29.90 in 10.0 mi ENE 12.7 mph 18.4 mph N/A   Clear
11:53 PM 79.0 °F - 66.9 °F 66% 29.90 in 10.0 mi SSE 4.6 mph - N/A   Clear